Location: Bidwell Hollow
(37.7387°N, 90.1707°W)
Time: 02:31:12
(UTC+00:00)

Tiros 1 despin weight - Pass Details

Date: 16 May 2026
Orbit: 554 x 591 km, 48.2° (Epoch: 6 June)

Event Time Altitude Azimuth Distance (km) Brightness Sun altitude
Rises 15:27:04 0° 306° (NW) 2,735 ? 52.5°
Reaches altitude 10° 15:29:27 10° 315° (NW) 1,836 ? 53.0°
Maximum altitude 15:33:22 38° 24° (NNE) 851 ? 53.7°
Drops below altitude 10° 15:37:17 10° 94° (E) 1,829 ? 54.4°
Sets 15:39:39 0° 102° (ESE) 2,723 ? 54.9°
